Wind_Speed
37 37 37 35 34 32 29 23 18 18 18 20 20 19 21 25 27 25 21 19 21 20 24 28 31 35 37 42 46 51 56 60 65 71 73 58 39 15 15 23 33 44 53
32 30 29 28 27 24 19 18 17 17 19 21 20 21 25 29 26 23 20 20 22 24 27 31 33 37 40 43 47 53 55 57 60 65 67 53 34 16 6 16 25 39 49
27 28 25 23 20 18 18 17 17 19 21 22 21 23 27 28 25 20 21 22 24 27 30 32 35 38 41 43 47 51 52 52 54 57 60 52 32 18 8 13 22 35 45
28 28 24 20 17 17 17 18 20 22 24 24 23 24 28 27 22 20 23 24 25 28 30 33 36 39 41 42 46 49 50 48 47 49 53 48 37 22 11 2 17 33 37
25 20 20 18 16 17 18 20 23 27 25 25 24 26 29 27 23 23 26 26 27 27 31 33 36 40 41 44 46 48 48 43 39 40 43 40 34 24 13 5 21 28 23
20 16 16 16 16 18 21 24 27 27 27 26 27 29 29 26 26 26 28 29 30 31 32 35 39 40 41 45 46 47 43 37 33 32 35 35 27 23 16 14 19 18 16
15 14 15 18 20 23 25 28 28 28 29 30 31 31 30 26 26 29 31 33 34 36 37 38 39 41 44 45 47 45 37 32 30 26 26 27 24 14 10 9 9 11 13
17 19 21 24 26 28 29 30 31 32 33 33 33 31 30 26 27 30 34 36 37 40 40 41 42 43 43 44 41 38 31 27 27 25 21 21 20 16 7 3 7 10 11
24 26 28 29 30 30 31 33 36 38 39 39 36 33 29 28 29 34 36 38 40 40 41 43 41 42 41 38 32 31 28 25 24 26 26 20 17 15 13 11 13 16 20
25 27 29 30 32 35 38 40 40 39 39 38 39 38 31 33 35 36 38 40 41 42 42 44 43 42 40 34 33 32 30 29 27 28 29 25 22 20 18 17 18 20 22
32 34 36 37 39 40 41 41 41 41 41 40 39 38 38 37 38 39 42 43 44 45 45 45 45 42 40 38 37 35 34 33 32 31 30 29 28 28 27 26 25 27 29
36 38 39 40 42 42 43 42 42 41 40 39 40 41 41 42 43 44 44 45 45 46 45 44 42 42 42 42 41 39 38 36 35 35 34 33 32 33 33 33 34 34 35
40 41 42 42 42 41 40 41 43 43 43 43 44 44 45 45 45 46 47 48 47 47 46 45 44 44 44 44 44 43 43 42 40 40 40 40 40 39 40 40 41 41 43
41 40 40 40 41 42 43 43 44 44 45 46 46 47 48 48 49 49 50 50 50 48 48 49 49 49 49 49 49 49 47 48 48 47 47 46 45 45 48 46 46 46 48
40 42 43 44 44 44 45 46 46 46 47 48 49 50 51 52 52 53 53 53 53 53 53 53 53 54 54 54 54 53 53 53 53 53 53 53 52 53 52 52 53 53 53
43 45 46 46 46 47 48 49 50 51 52 53 54 54 55 56 57 58 58 58 58 58 58 58 58 59 59 60 59 59 59 60 60 59 60 59 58 58 58 59 60 59 61
48 48 49 51 52 52 52 53 53 54 55 56 58 59 59 60 61 61 62 63 63 63 63 63 63 63 62 62 62 62 62 62 63 62 63 63 63 62 62 63 63 64 65
48 50 51 52 53 54 55 56 58 58 58 59 60 62 63 64 65 66 67 67 68 68 68 69 69 69 69 68 68 67 66 66 65 66 65 65 65 66 65 66 67 67 68
51 51 52 54 55 56 57 58 60 62 63 65 67 68 69 70 70 71 72 73 73 73 73 73 73 72 71 71 70 70 69 68 68 69 69 68 67 68 68 69 69 69 69
54 56 58 61 63 64 65 67 68 69 71 72 74 75 75 76 75 75 75 74 75 73 72 71 71 70 67 68 67 67 66 66 65 64 64 66 66 67 67 66 66 66 66
60 63 65 66 69 72 73 75 76 77 77 77 78 78 78 78 77 76 75 73 71 68 66 65 64 65 66 64 63 63 62 61 61 61 61 62 63 62 63 63 62 60 61
68 69 71 73 75 77 79 80 81 81 81 80 79 77 75 74 74 73 71 71 70 68 67 66 64 63 63 65 64 63 62 61 60 60 60 60 60 60 57 56 54 53 55
71 73 77 79 80 79 79 77 75 74 72 72 72 72 72 72 72 72 72 71 72 71 70 69 67 65 65 64 66 65 65 64 63 62 62 60 58 56 51 49 50 50 49
78 79 79 77 74 75 74 74 74 75 74 73 73 74 74 73 73 73 73 73 72 72 72 72 72 71 69 67 67 67 66 65 65 65 62 61 58 55 52 48 47 47 46
76 75 75 74 73 74 74 75 75 75 75 74 74 74 74 74 74 74 74 75 75 76 75 74 75 75 72 70 70 69 67 66 66 65 63 61 58 54 51 48 45 44 45
79 79 80 80 79 78 77 76 77 79 79 78 77 76 76 76 77 77 76 76 77 76 76 76 77 76 76 75 73 70 67 65 64 63 60 59 57 54 52 49 44 43 39
Wind_Direction
293 292 292 289 284 278 273 268 257 261 274 286 288 287 292 294 295 295 267 271 275 282 286 294 301 306 313 321 324 325 329 332 332 333 343 349 347 324 239 229 224 216 214
295 294 289 284 279 272 261 249 258 274 286 290 289 295 306 307 300 297 260 270 275 283 288 295 302 306 313 319 324 328 330 333 335 337 349 358 356 351 235 229 222 209 209
292 290 287 286 281 268 249 255 272 284 294 297 291 300 309 307 301 284 262 270 278 283 286 295 301 306 313 320 324 327 332 333 336 341 354 1 1 360 327 235 215 204 205
291 284 279 274 265 249 251 266 280 296 301 298 292 299 308 302 294 278 261 270 278 285 292 298 303 308 312 317 322 328 333 334 336 344 354 6 10 9 19 164 194 194 201
292 281 275 266 249 248 261 274 287 294 296 294 293 297 302 301 291 276 268 277 280 287 292 297 301 305 312 317 321 326 330 333 337 344 354 8 18 20 30 109 169 180 196
283 273 263 248 243 260 271 278 285 290 289 289 289 292 298 306 296 275 273 276 282 288 290 295 303 307 310 314 319 324 328 330 337 343 351 4 22 39 68 116 154 168 189
263 259 251 249 261 270 275 279 282 283 284 288 292 295 297 304 294 278 279 281 286 289 294 298 301 303 307 312 316 321 325 326 331 338 346 354 8 32 69 112 151 188 215
267 267 266 267 273 279 284 287 289 289 291 292 294 294 296 293 289 284 283 283 285 290 294 295 298 302 307 311 315 319 321 324 329 332 334 341 348 358 345 264 229 228 240
268 269 273 273 277 278 281 285 288 289 289 290 293 295 293 291 288 284 283 284 287 290 292 295 298 304 309 313 313 314 312 316 326 334 329 322 322 325 318 308 275 255 249
277 277 276 276 277 281 285 286 287 287 290 291 293 294 288 283 282 284 286 286 289 290 292 296 299 303 305 309 312 306 311 307 310 317 317 318 312 302 295 286 277 271 267
278 279 281 284 286 287 288 289 289 292 293 293 294 295 294 291 290 290 291 292 293 295 297 298 299 300 300 298 298 299 300 302 301 303 304 302 304 303 292 286 278 272 268
283 283 285 287 287 289 289 289 291 295 294 292 292 292 291 291 291 291 292 294 296 296 296 296 297 297 297 296 294 294 295 297 297 298 297 295 295 294 291 287 281 278 277
285 287 287 287 288 289 291 292 291 293 294 294 294 294 293 292 292 293 294 296 297 295 294 294 294 293 292 294 293 293 293 294 295 296 295 294 292 289 287 285 280 276 273
287 288 288 289 290 290 291 292 291 290 290 291 292 293 293 294 295 295 294 294 294 293 292 292 292 291 291 290 290 290 290 291 292 293 293 292 291 292 287 282 278 275 272
285 286 287 288 289 289 289 290 291 292 294 295 296 296 296 295 294 293 293 293 292 292 293 292 291 290 289 287 286 287 288 288 289 289 290 290 290 289 287 283 279 274 272
286 286 286 287 287 288 289 290 291 292 292 293 293 292 292 293 294 294 294 293 293 293 292 291 290 288 288 288 288 288 287 287 288 288 288 287 287 286 285 284 281 275 270
284 287 288 288 289 289 289 289 289 289 288 288 288 288 288 289 289 289 289 290 290 290 289 289 289 288 287 286 286 286 286 285 285 284 284 284 284 282 280 278 275 272 269
281 282 283 284 285 285 286 287 288 289 289 289 289 288 289 289 289 289 290 290 291 291 291 291 290 290 289 288 288 287 286 285 284 284 283 282 279 278 276 274 272 270 268
285 288 289 289 289 290 290 290 290 290 290 291 291 291 291 292 292 292 292 292 293 293 293 292 291 290 289 288 287 286 285 283 281 281 280 278 276 274 272 271 269 268 268
289 290 291 291 291 291 291 292 292 292 293 294 294 294 294 294 294 294 293 293 292 292 291 291 290 289 288 287 286 285 284 283 281 280 278 277 276 275 274 273 273 273 271
290 290 291 292 293 293 293 293 293 293 294 294 294 294 294 294 293 293 293 292 292 292 291 291 291 290 290 289 287 286 285 282 281 281 280 279 279 279 278 277 276 274 272
290 291 292 292 293 292 291 291 291 291 291 291 292 292 293 293 292 292 292 292 291 291 290 290 289 290 289 289 288 288 287 285 283 282 281 282 283 282 282 282 281 278 275
288 288 289 289 290 290 290 290 290 290 290 291 291 291 291 291 290 290 289 289 289 289 289 288 287 286 286 286 286 285 285 284 283 282 282 282 284 285 284 283 282 280 276
286 287 287 288 288 288 288 288 288 288 288 289 288 288 288 287 288 289 289 289 288 287 286 286 286 286 284 283 283 283 282 282 281 280 280 281 283 284 283 281 280 278 276
289 289 289 289 289 289 289 289 288 288 288 288 287 286 287 287 287 287 286 285 286 286 286 285 285 283 282 283 283 282 282 281 280 280 280 280 279 278 278 277 276 275 274
289 290 290 290 289 289 289 288 288 288 287 287 287 286 286 286 286 286 285 286 286 287 288 287 286 285 284 282 281 280 280 280 279 277 278 278 276 276 274 273 272 269 271
Height
5800 5797 5793 5791 5788 5787 5786 5786 5785 5785 5784 5784 5782 5781 5780 5779 5776 5774 5773 5772 5770 5769 5766 5763 5760 5756 5752 5746 5739 5731 5720 5709 5692 5672 5645 5618 5602 5593 5596 5604 5614 5630 5648
5792 5789 5786 5784 5782 5782 5781 5782 5782 5782 5781 5780 5778 5777 5775 5772 5769 5768 5768 5767 5766 5764 5760 5758 5754 5750 5745 5740 5733 5725 5715 5703 5690 5671 5647 5624 5611 5604 5604 5608 5616 5628 5643
5786 5784 5782 5781 5779 5779 5779 5779 5779 5779 5777 5775 5774 5772 5769 5766 5763 5762 5762 5761 5760 5758 5755 5752 5749 5745 5740 5734 5728 5720 5711 5700 5688 5673 5653 5633 5620 5614 5611 5613 5619 5631 5645
5781 5779 5778 5776 5775 5775 5776 5776 5776 5774 5772 5771 5769 5767 5764 5761 5758 5757 5756 5756 5755 5752 5750 5747 5743 5739 5734 5729 5723 5715 5707 5698 5688 5676 5660 5642 5630 5623 5620 5619 5625 5638 5651
5777 5774 5773 5773 5772 5773 5773 5772 5771 5769 5768 5766 5763 5761 5758 5756 5752 5751 5750 5749 5748 5746 5744 5740 5737 5733 5728 5723 5717 5710 5703 5696 5688 5679 5667 5654 5642 5634 5630 5631 5636 5645 5657
5772 5770 5770 5770 5770 5769 5768 5767 5766 5764 5762 5760 5757 5754 5752 5749 5747 5746 5745 5743 5741 5739 5737 5734 5730 5726 5722 5717 5711 5705 5699 5693 5688 5680 5673 5664 5655 5648 5644 5644 5650 5654 5658
5770 5769 5768 5767 5766 5765 5763 5761 5759 5757 5755 5753 5750 5748 5745 5742 5741 5739 5738 5737 5734 5732 5730 5727 5723 5720 5716 5711 5706 5700 5695 5690 5685 5681 5675 5669 5664 5659 5657 5656 5657 5660 5663
5768 5767 5765 5764 5762 5760 5757 5755 5753 5751 5748 5746 5743 5739 5737 5735 5734 5733 5731 5729 5727 5724 5721 5718 5715 5712 5708 5704 5699 5695 5691 5686 5681 5678 5675 5671 5668 5665 5663 5661 5661 5661 5662
5763 5762 5760 5757 5755 5753 5751 5749 5746 5743 5740 5737 5734 5732 5730 5728 5727 5725 5723 5721 5719 5716 5713 5710 5707 5703 5700 5696 5692 5688 5685 5682 5679 5676 5673 5671 5668 5666 5664 5663 5662 5661 5661
5758 5755 5753 5751 5749 5747 5744 5740 5738 5735 5732 5729 5726 5724 5722 5720 5718 5716 5714 5712 5710 5707 5704 5700 5697 5694 5691 5688 5685 5682 5679 5676 5674 5672 5669 5667 5666 5664 5663 5661 5659 5658 5657
5751 5748 5745 5744 5741 5738 5735 5732 5729 5727 5724 5721 5719 5716 5713 5711 5709 5707 5704 5702 5700 5696 5693 5690 5688 5684 5681 5678 5676 5673 5671 5669 5666 5664 5662 5660 5659 5658 5656 5655 5654 5652 5650
5742 5739 5737 5734 5730 5728 5725 5723 5720 5717 5715 5713 5710 5707 5705 5703 5700 5698 5695 5691 5689 5686 5683 5680 5677 5674 5671 5669 5667 5664 5662 5660 5657 5655 5653 5650 5650 5649 5648 5646 5644 5643 5641
5732 5730 5727 5725 5721 5718 5716 5713 5710 5708 5706 5703 5701 5698 5695 5692 5690 5687 5684 5680 5677 5674 5671 5668 5666 5663 5660 5658 5656 5654 5651 5649 5646 5644 5642 5640 5638 5635 5635 5634 5632 5630 5629
5723 5719 5717 5715 5712 5710 5707 5704 5701 5698 5696 5692 5690 5687 5684 5680 5676 5673 5670 5667 5664 5662 5658 5655 5652 5650 5647 5645 5642 5639 5637 5635 5633 5630 5628 5626 5624 5622 5620 5618 5617 5615 5614
5713 5710 5706 5704 5702 5699 5695 5692 5689 5686 5683 5680 5677 5673 5670 5667 5664 5661 5658 5654 5651 5649 5646 5643 5639 5635 5633 5630 5627 5625 5623 5620 5617 5614 5612 5610 5608 5606 5603 5602 5600 5599 5597
5701 5698 5695 5692 5690 5687 5684 5680 5676 5673 5670 5667 5664 5661 5657 5654 5650 5647 5643 5639 5635 5632 5629 5626 5624 5620 5617 5614 5612 5609 5607 5604 5601 5597 5595 5592 5590 5588 5586 5583 5581 5579 5578
5687 5685 5681 5678 5675 5673 5670 5667 5664 5660 5656 5652 5649 5645 5642 5638 5635 5631 5627 5623 5620 5616 5612 5608 5605 5601 5599 5596 5593 5590 5588 5584 5581 5578 5575 5572 5570 5568 5565 5563 5561 5559 5557
5676 5673 5670 5667 5663 5660 5657 5653 5649 5646 5642 5637 5633 5630 5626 5622 5618 5614 5610 5606 5602 5598 5594 5590 5586 5582 5578 5575 5572 5569 5567 5563 5559 5556 5553 5551 5548 5545 5543 5541 5539 5537 5535
5662 5659 5656 5652 5648 5645 5642 5638 5634 5629 5625 5621 5617 5612 5608 5604 5599 5595 5591 5586 5581 5577 5572 5568 5564 5560 5555 5553 5549 5547 5543 5540 5536 5532 5529 5527 5525 5521 5520 5518 5516 5514 5513
5650 5646 5642 5637 5632 5628 5624 5619 5615 5611 5607 5602 5597 5592 5587 5583 5578 5573 5569 5564 5560 5555 5551 5546 5541 5537 5533 5529 5526 5524 5521 5517 5513 5509 5506 5503 5502 5498 5497 5497 5495 5495 5493
5634 5629 5625 5620 5614 5609 5605 5599 5594 5590 5586 5582 5576 5571 5566 5561 5556 5551 5546 5541 5537 5532 5527 5523 5517 5513 5510 5506 5503 5501 5499 5496 5493 5488 5485 5482 5480 5480 5477 5476 5477 5474 5471
5615 5611 5606 5600 5594 5589 5585 5580 5574 5570 5564 5559 5553 5548 5543 5539 5534 5529 5524 5519 5514 5511 5507 5504 5500 5493 5489 5484 5481 5478 5476 5474 5473 5469 5465 5463 5460 5460 5459 5456 5455 5454 5452
5597 5592 5587 5582 5575 5567 5563 5559 5553 5549 5545 5539 5534 5529 5523 5518 5512 5508 5504 5500 5493 5490 5486 5482 5480 5477 5471 5466 5461 5460 5456 5454 5452 5450 5447 5445 5443 5442 5440 5439 5437 5436 5436
5575 5569 5564 5560 5555 5546 5542 5537 5532 5527 5523 5520 5514 5507 5502 5497 5491 5486 5480 5476 5471 5468 5464 5460 5457 5455 5453 5447 5441 5438 5436 5434 5432 5430 5430 5429 5427 5425 5424 5422 5421 5420 5418
5548 5543 5539 5535 5532 5524 5519 5512 5505 5501 5498 5495 5490 5484 5478 5474 5470 5465 5459 5454 5450 5444 5441 5437 5432 5429 5430 5426 5420 5417 5416 5414 5411 5409 5412 5411 5411 5409 5407 5406 5405 5405 5404
5524 5518 5513 5510 5506 5501 5496 5490 5482 5474 5472 5470 5465 5460 5455 5450 5445 5440 5438 5432 5426 5423 5418 5412 5406 5406 5401 5400 5398 5396 5394 5392 5389 5388 5391 5391 5390 5391 5390 5390 5390 5389 5390